This is the latest recevied weather packets stored in our database for station/object M0OAB-1. If no packets are shown the sender has not sent any weather packets the latest 10 day(s).
| Time | Temp. | Humidity | Pressure | Rain* | Wind** | Luminosity | Snow |
|---|---|---|---|---|---|---|---|
| 1777373525 | 12.22° C | 70% | 1010.8 hPa | 0 mm | - | - | - |
| 1777373165 | 12.22° C | 71% | 1010.9 hPa | 0 mm | - | - | - |
| 1777372205 | 11.67° C | 70% | 1011.1 hPa | 0 mm | - | - | - |
| 1777368965 | 11.11° C | 71% | 1011 hPa | 0 mm | - | - | - |
| 1777367764 | 10.56° C | 74% | 1010.7 hPa | 0 mm | - | - | - |
| 1777366805 | 10.56° C | 76% | 1010.9 hPa | 0 mm | - | - | - |
| 1777366204 | 10.56° C | 79% | 1010.7 hPa | 0 mm | - | - | - |
| 1777364884 | 10° C | 80% | 1010.6 hPa | 0 mm | - | - | - |
| 1777364405 | 10° C | 80% | 1010.6 hPa | 0 mm | - | - | - |
| 1777360805 | 10° C | 83% | 1010.4 hPa | 0 mm | - | - | - |
| 1777359364 | 9.44° C | 85% | 1010.6 hPa | 0 mm | - | - | - |
| 1777358045 | 9.44° C | 86% | 1010.2 hPa | 0 mm | - | - | - |
| 1777357804 | 9.44° C | 86% | 1010.2 hPa | 0 mm | - | - | - |
| 1777356964 | 9.44° C | 85% | 1010.3 hPa | 0 mm | - | - | - |
| 1777356364 | 9.44° C | 85% | 1010.1 hPa | 0 mm | - | - | - |
| 1777354925 | 9.44° C | 85% | 1009.9 hPa | 0 mm | - | - | - |
| 1777354445 | 9.44° C | 85% | 1009.7 hPa | 0 mm | - | - | - |
| 1777352525 | 9.44° C | 87% | 1009.6 hPa | 0 mm | - | - | - |
| 1777351925 | 9.44° C | 89% | 1009.5 hPa | 0 mm | - | - | - |
| 1777351204 | 9.44° C | 90% | 1009.3 hPa | 0 mm | - | - | - |
| 1777348084 | 9.44° C | 90% | 1009 hPa | 0 mm | - | - | - |
| 1777346884 | 9.44° C | 89% | 1009.2 hPa | 0 mm | - | - | - |
| 1777345564 | 9.44° C | 87% | 1009.4 hPa | 0 mm | - | - | - |
| 1777345205 | 9.44° C | 86% | 1009.4 hPa | 0 mm | - | - | - |
| 1777344965 | 9.44° C | 86% | 1009.3 hPa | 0 mm | - | - | - |
* Rain latest hour (hover to see other rain measurements)
** Current wind speed in m/s (hover to see current wind gust speed)